This is the latest recevied weather packets stored in our database for station/object PY1LEO-13. If no packets are shown the sender has not sent any weather packets the latest 10 day(s).
| Time | Temp. | Humidity | Pressure | Rain* | Wind** | Luminosity | Snow |
|---|---|---|---|---|---|---|---|
| 1788148547 | 80° F | 67% | 763.9 mmHg | - | - | - | - |
| 1788148247 | 80° F | 66% | 763.9 mmHg | - | - | - | - |
| 1788147947 | 80° F | 68% | 763.8 mmHg | - | - | - | - |
| 1788147647 | 80° F | 66% | 763.8 mmHg | - | - | - | - |
| 1788147347 | 80° F | 66% | 763.8 mmHg | - | - | - | - |
| 1788147047 | 81° F | 65% | 763.8 mmHg | - | - | - | - |
| 1788146748 | 80° F | 66% | 763.8 mmHg | - | - | - | - |
| 1788146447 | 80° F | 66% | 763.8 mmHg | - | - | - | - |
| 1788146147 | 81° F | 65% | 763.7 mmHg | - | - | - | - |
| 1788145847 | 80° F | 65% | 763.6 mmHg | - | - | - | - |
| 1788145547 | 80° F | 64% | 763.7 mmHg | - | - | - | - |
| 1788145247 | 80° F | 65% | 763.7 mmHg | - | - | - | - |
| 1788144947 | 79° F | 68% | 763.8 mmHg | - | - | - | - |
| 1788144647 | 80° F | 65% | 763.8 mmHg | - | - | - | - |
| 1788144347 | 79° F | 67% | 763.6 mmHg | - | - | - | - |
| 1788144047 | 80° F | 64% | 763.6 mmHg | - | - | - | - |
| 1788143747 | 81° F | 61% | 763.5 mmHg | - | - | - | - |
| 1788143447 | 81° F | 59% | 763.4 mmHg | - | - | - | - |
| 1788143147 | 81° F | 60% | 763.1 mmHg | - | - | - | - |
| 1788142847 | 81° F | 59% | 763 mmHg | - | - | - | - |
| 1788142547 | 81° F | 60% | 762.9 mmHg | - | - | - | - |
| 1788142247 | 81° F | 60% | 763 mmHg | - | - | - | - |
| 1788141947 | 81° F | 61% | 762.9 mmHg | - | - | - | - |
| 1788141647 | 81° F | 60% | 763 mmHg | - | - | - | - |
| 1788141347 | 81° F | 60% | 763 mmHg | - | - | - | - |
* Rain since midnight (hover to see other rain measurements)
** Current wind speed in m/s (hover to see current wind gust speed)